Hourly Weather Prudnik

Today, 13 August, Thursday

Time Temperature Precipitation Wind Pressure Humidity
00:00 +20°C° 0 mm 1 mps 740 mmHg 67%
01:00 +19°C° 0 mm 1 mps 740 mmHg 68%
02:00 +19°C° 0 mm 1 mps 740 mmHg 68%
03:00 +19°C° 0 mm 1 mps 740 mmHg 68%
04:00 +19°C° 0 mm 1 mps 739 mmHg 68%
05:00 +20°C° 0 mm 1 mps 740 mmHg 67%
06:00 +21°C° 0 mm 1 mps 740 mmHg 66%
07:00 +22°C° 0 mm 1 mps 740 mmHg 65%
08:00 +24°C° 0 mm 1 mps 740 mmHg 60%
09:00 +26°C° 0 mm 1 mps 740 mmHg 55%
10:00 +28°C° 0 mm 2 mps 740 mmHg 50%
11:00 +28°C° 0 mm 2 mps 740 mmHg 48%
12:00 +29°C° 0 mm 2 mps 739 mmHg 46%
13:00 +30°C° 0 mm 2 mps 739 mmHg 45%
14:00 +30°C° 0.1 mm 1 mps 739 mmHg 46%
15:00 +29°C° 0.1 mm 1 mps 738 mmHg 48%
16:00 +27°C° 0.1 mm 0 mps 738 mmHg 49%
17:00 +28°C° 0 mm 1 mps 738 mmHg 54%
18:00 +26°C° 0 mm 1 mps 738 mmHg 60%
19:00 +24°C° 0 mm 1 mps 738 mmHg 65%
20:00 +23°C° 0 mm 1 mps 738 mmHg 65%
21:00 +23°C° 0 mm 1 mps 738 mmHg 66%
22:00 +22°C° 0 mm 1 mps 738 mmHg 66%
23:00 +21°C° 0 mm 1 mps 738 mmHg 67%

Tomorrow, 14 August, Friday

Time Temperature Precipitation Wind Pressure Humidity
00:00 +21°C° 0 mm 1 mps 738 mmHg 68%
01:00 +20°C° 0 mm 1 mps 738 mmHg 69%
02:00 +20°C° 0 mm 1 mps 738 mmHg 71%
03:00 +20°C° 0 mm 1 mps 737 mmHg 72%
04:00 +20°C° 0 mm 1 mps 737 mmHg 74%
05:00 +21°C° 0 mm 1 mps 737 mmHg 72%
06:00 +22°C° 0 mm 1 mps 737 mmHg 71%
07:00 +23°C° 0 mm 1 mps 737 mmHg 69%
08:00 +24°C° 0.1 mm 1 mps 738 mmHg 66%
09:00 +26°C° 0.1 mm 1 mps 738 mmHg 62%
10:00 +27°C° 0.1 mm 2 mps 738 mmHg 58%
11:00 +28°C° 0.2 mm 2 mps 737 mmHg 56%
12:00 +29°C° 0.2 mm 1 mps 737 mmHg 53%
13:00 +29°C° 0.2 mm 1 mps 737 mmHg 51%
14:00 +29°C° 0.3 mm 1 mps 737 mmHg 52%
15:00 +29°C° 0.3 mm 1 mps 737 mmHg 54%
16:00 +29°C° 0.3 mm 1 mps 736 mmHg 56%
17:00 +27°C° 0.1 mm 1 mps 736 mmHg 60%
18:00 +26°C° 0.1 mm 1 mps 736 mmHg 64%
19:00 +24°C° 0.1 mm 2 mps 736 mmHg 68%
20:00 +23°C° 0.1 mm 2 mps 737 mmHg 70%
21:00 +23°C° 0.1 mm 2 mps 737 mmHg 72%
22:00 +21°C° 0.1 mm 2 mps 737 mmHg 74%
23:00 +21°C° 0.1 mm 1 mps 737 mmHg 75%

Day after tomorrow, 15 August, Saturday

Time Temperature Precipitation Wind Pressure Humidity
00:00 +21°C° 0.1 mm 1 mps 737 mmHg 76%
01:00 +21°C° 0.1 mm 1 mps 737 mmHg 77%
02:00 +20°C° 0.1 mm 1 mps 737 mmHg 79%
03:00 +20°C° 0.1 mm 1 mps 737 mmHg 81%
04:00 +20°C° 0.1 mm 1 mps 737 mmHg 83%
05:00 +20°C° 0.1 mm 1 mps 737 mmHg 82%
06:00 +21°C° 0.1 mm 1 mps 737 mmHg 82%
07:00 +21°C° 0.1 mm 1 mps 737 mmHg 82%
08:00 +21°C° 0.1 mm 2 mps 737 mmHg 77%
09:00 +23°C° 0.1 mm 2 mps 738 mmHg 72%
10:00 +24°C° 0.1 mm 2 mps 738 mmHg 67%
11:00 +25°C° 0 mm 3 mps 738 mmHg 61%
12:00 +26°C° 0 mm 3 mps 738 mmHg 55%
13:00 +27°C° 0 mm 4 mps 738 mmHg 49%
14:00 +27°C° 0 mm 4 mps 738 mmHg 49%
15:00 +27°C° 0 mm 4 mps 738 mmHg 50%
16:00 +27°C° 0 mm 4 mps 738 mmHg 50%
17:00 +25°C° 0 mm 4 mps 738 mmHg 56%
18:00 +22°C° 0 mm 3 mps 738 mmHg 62%
19:00 +21°C° 0 mm 3 mps 738 mmHg 69%
20:00 +20°C° 0 mm 2 mps 738 mmHg 71%
21:00 +19°C° 0 mm 2 mps 738 mmHg 74%
22:00 +18°C° 0 mm 2 mps 738 mmHg 77%
23:00 +18°C° 0 mm 2 mps 738 mmHg 79%

16 August, Sunday

Time Temperature Precipitation Wind Pressure Humidity
00:00 +17°C° 0 mm 2 mps 738 mmHg 82%
01:00 +17°C° 0 mm 2 mps 738 mmHg 84%
02:00 +16°C° 0 mm 2 mps 738 mmHg 86%
03:00 +16°C° 0 mm 1 mps 738 mmHg 87%
04:00 +15°C° 0 mm 1 mps 738 mmHg 89%
05:00 +16°C° 0 mm 2 mps 738 mmHg 85%
06:00 +17°C° 0 mm 2 mps 738 mmHg 81%
07:00 +18°C° 0 mm 2 mps 739 mmHg 77%
08:00 +20°C° 0 mm 3 mps 739 mmHg 71%
09:00 +21°C° 0 mm 3 mps 739 mmHg 64%
10:00 +24°C° 0 mm 3 mps 739 mmHg 58%
11:00 +25°C° 0 mm 4 mps 739 mmHg 56%
12:00 +26°C° 0 mm 4 mps 739 mmHg 53%
13:00 +27°C° 0 mm 4 mps 739 mmHg 51%
14:00 +27°C° 0 mm 3 mps 738 mmHg 51%
15:00 +27°C° 0 mm 3 mps 738 mmHg 52%
16:00 +27°C° 0 mm 3 mps 738 mmHg 52%
17:00 +25°C° 0 mm 2 mps 738 mmHg 58%
18:00 +24°C° 0 mm 2 mps 738 mmHg 65%
19:00 +22°C° 0 mm 1 mps 738 mmHg 71%
20:00 +21°C° 0 mm 1 mps 738 mmHg 74%
21:00 +21°C° 0 mm 1 mps 738 mmHg 76%
22:00 +20°C° 0 mm 1 mps 738 mmHg 79%
23:00 +20°C° 0 mm 1 mps 738 mmHg 82%

17 August, Monday

Time Temperature Precipitation Wind Pressure Humidity
00:00 +19°C° 0 mm 1 mps 737 mmHg 84%
01:00 +19°C° 0 mm 1 mps 737 mmHg 87%
02:00 +19°C° 0 mm 1 mps 737 mmHg 87%
03:00 +18°C° 0 mm 1 mps 737 mmHg 87%
04:00 +18°C° 0 mm 1 mps 737 mmHg 88%
05:00 +20°C° 0 mm 1 mps 737 mmHg 83%
06:00 +21°C° 0 mm 1 mps 737 mmHg 79%
07:00 +22°C° 0 mm 1 mps 737 mmHg 75%
08:00 +24°C° 0 mm 2 mps 737 mmHg 69%
09:00 +26°C° 0 mm 2 mps 737 mmHg 63%
10:00 +28°C° 0 mm 3 mps 737 mmHg 57%
11:00 +28°C° 0 mm 3 mps 737 mmHg 54%
12:00 +29°C° 0 mm 3 mps 736 mmHg 52%
13:00 +29°C° 0 mm 4 mps 736 mmHg 50%
14:00 +29°C° 0 mm 3 mps 736 mmHg 51%
15:00 +29°C° 0 mm 3 mps 735 mmHg 52%
16:00 +29°C° 0 mm 3 mps 735 mmHg 52%
17:00 +27°C° 0.1 mm 3 mps 735 mmHg 60%
18:00 +25°C° 0.1 mm 3 mps 734 mmHg 67%
19:00 +24°C° 0.1 mm 2 mps 734 mmHg 74%
20:00 +23°C° 0.3 mm 2 mps 734 mmHg 76%
21:00 +21°C° 0.3 mm 2 mps 734 mmHg 78%
22:00 +21°C° 0.3 mm 2 mps 734 mmHg 80%
23:00 +20°C° 0.8 mm 2 mps 734 mmHg 81%

18 August, Tuesday

Time Temperature Precipitation Wind Pressure Humidity
00:00 +20°C° 0.8 mm 2 mps 734 mmHg 83%
01:00 +19°C° 0.8 mm 2 mps 734 mmHg 85%
02:00 +19°C° 0.4 mm 2 mps 734 mmHg 86%
03:00 +19°C° 0.4 mm 2 mps 734 mmHg 87%
04:00 +19°C° 0.4 mm 2 mps 734 mmHg 88%
05:00 +19°C° 0 mm 2 mps 734 mmHg 86%
06:00 +20°C° 0 mm 2 mps 734 mmHg 84%
07:00 +21°C° 0 mm 3 mps 734 mmHg 82%
08:00 +23°C° 0.5 mm 2 mps 734 mmHg 77%
09:00 +25°C° 0.5 mm 2 mps 734 mmHg 72%
10:00 +26°C° 0.5 mm 2 mps 735 mmHg 67%
11:00 +26°C° 1.4 mm 2 mps 734 mmHg 67%
12:00 +26°C° 1.4 mm 3 mps 734 mmHg 66%
13:00 +26°C° 1.4 mm 4 mps 734 mmHg 66%
14:00 +25°C° 0.8 mm 4 mps 734 mmHg 71%
15:00 +23°C° 0.8 mm 4 mps 734 mmHg 77%
16:00 +22°C° 0.8 mm 4 mps 734 mmHg 82%
17:00 +21°C° 0.1 mm 3 mps 734 mmHg 83%
18:00 +21°C° 0.1 mm 3 mps 734 mmHg 84%
19:00 +20°C° 0.1 mm 2 mps 734 mmHg 85%
20:00 +20°C° 0.1 mm 2 mps 735 mmHg 84%
21:00 +20°C° 0.1 mm 3 mps 735 mmHg 84%
22:00 +20°C° 0.1 mm 3 mps 735 mmHg 84%
23:00 +19°C° 0.3 mm 3 mps 735 mmHg 85%
Show more